Regional Weather Roundup
Issued by NWS Glasgow, MT

Home | Current Version | Previous Version | Text Only | Print | Product List | Glossary On
Versions: 1 2 3 4 5 6 7 8 9 10 11 12 13 14 15 16 17 18 19 20 21 22 23 24 25 26 27 28 29 30 31 32 33 34 35 36 37 38 39 40 41 42 43 44 45 46 47 48 49 50
000
ASUS45 KGGW 251215
RWRGGW
HOURLY REGIONAL WEATHER ROUNDUP FOR NORTHEAST MONTANA
NATIONAL WEATHER SERVICE GLASGOW MONTANA
600 AM MDT FRI MAY 25 2018

NOTE: "FAIR" INDICATES FEW OR NO CLOUDS BELOW 12,000 FEET WITH NO
SIGNIFICANT WEATHER AND/OR OBSTRUCTIONS TO VISISBILITY.

NORTHEAST MONTANA


CITY           SKY/WX    TMP DP  RH WIND       PRES   REMARKS
GLASGOW        CLEAR     60  49  66 W8        29.79R
6HR MIN TEMP:  59; 6HR MAX TEMP:  68;

WOLF POINT     CLEAR     58  52  80 SW9       29.78R
JORDAN           N/A     55  49  80 W9        29.85S
SIDNEY         PTCLDY    58  54  86 SE7       29.77S
GLENDIVE       CLEAR     58  52  80 W8        29.84R

FORT PECK REPORTS


CITY           SKY/WX    TMP DP  RH WIND       PRES   REMARKS

SOUTHEAST MONTANA


CITY           SKY/WX    TMP DP  RH WIND       PRES   REMARKS
BILLINGS       PTCLDY    57  48  72 SW15      29.98R
MILES CITY     CLEAR     59  55  87 W7        29.89R
BAKER          CLEAR     56  53  90 W7        29.89S
LIVINGSTON     CLEAR     51  45  79 W12       30.04S

CENTRAL MONTANA


CITY           SKY/WX    TMP DP  RH WIND       PRES   REMARKS
HAVRE          CLEAR     59  46  62 SW14      29.85R
LEWISTOWN      CLEAR     53  45  74 CALM      29.98R
GREAT FALLS    CLEAR     55  46  71 SW12      29.96R
CUT BANK       CLEAR     52  44  74 W8        29.93R
HELENA         CLEAR     53  46  77 SE3       30.01S
BUTTE          CLEAR     42  39  89 SE3       30.11S
BOZEMAN        CLEAR     46  43  89 SE3       30.06S

WESTERN MONTANA


CITY           SKY/WX    TMP DP  RH WIND       PRES   REMARKS
MISSOULA       CLEAR     50  46  86 CALM      30.02S
KALISPELL      NOT AVBL

NORTH DAKOTA


CITY           SKY/WX    TMP DP  RH WIND       PRES   REMARKS
WILLISTON      PTCLDY    60  55  83 SW8       29.74S
DICKINSON      CLEAR     60  52  74 W12       29.81R
MINOT          CLEAR     65  54  67 SW13      29.70R
BISMARCK       CLEAR     62  55  77 SW3       29.78S

SOUTHERN SASKATCHEWAN


CITY           SKY/WX    TMP DP  RH WIND       PRES   REMARKS
REGINA         CLEAR     54  52  94 W7        29.65S
MOOSE JAW      PTCLDY    57  54  88 W12       29.68R
ESTEVAN        PTCLDY    57  54  88 SW10      29.67S
SWIFT CURRENT  CLEAR     55  48  76 W15       29.75S




USA.gov is the U.S. government's official web portal to all federal, state and local government web resources and services.